| time (UTC) | temp F | wind direction | speed MPH | gust MPH | rain 1hr in | rain 24hr in | rain mn in | humidity % | barometer mb |
| 20260505151509 | 47 | 317 | 5.0 | 8.0 | 0.00 | 0.00 | 0.00 | 61 | 1008.6 |
| 20260505124514 | 47 | 360 | 12.0 | 18.0 | 0.00 | 0.00 | 0.00 | 63 | 1007.3 |
| 20260505123015 | 47 | 5 | 13.0 | 20.0 | 0.00 | 0.00 | 0.00 | 64 | 1007.1 |
| 20260505121511 | 46 | 360 | 13.0 | 22.0 | 0.00 | 0.00 | 0.00 | 65 | 1006.3 |
| 20260505120017 | 46 | 360 | 14.0 | 22.0 | 0.00 | 0.00 | 0.00 | 68 | 1005.9 |
| 20260505114514 | 46 | 18 | 15.0 | 23.0 | 0.00 | 0.00 | 0.00 | 71 | 1006.0 |
| 20260505113012 | 46 | 355 | 11.0 | 21.0 | 0.00 | 0.00 | 0.00 | 75 | 1006.1 |
| 20260505111524 | 46 | 17 | 12.0 | 19.0 | 0.00 | 0.00 | 0.00 | 79 | 1005.9 |
| 20260505101517 | 45 | 346 | 9.0 | 16.0 | 0.00 | 0.00 | 0.00 | 82 | 1004.9 |
| 20260505100026 | 48 | 288 | 6.0 | 12.0 | 0.00 | 0.00 | 0.00 | 75 | 1004.4 |
| 20260505094518 | 48 | 38 | 5.0 | 11.0 | 0.00 | 0.00 | 0.00 | 72 | 1004.3 |
| 20260505093012 | 47 | 26 | 5.0 | 12.0 | 0.00 | 0.00 | 0.00 | 75 | 1003.4 |
| 20260505091518 | 46 | 28 | 6.0 | 11.0 | 0.00 | 0.00 | 0.00 | 78 | 1003.1 |
| 20260505090020 | 45 | 18 | 7.0 | 11.0 | 0.00 | 0.00 | 0.00 | 84 | 1002.8 |
| 20260505084519 | 44 | 34 | 11.0 | 18.0 | 0.00 | 0.00 | 0.00 | 86 | 1002.4 |
| 20260505083019 | 44 | 339 | 10.0 | 15.0 | 0.00 | 0.00 | 0.00 | 84 | 1002.3 |
| 20260505081531 | 45 | 335 | 9.0 | 12.0 | 0.00 | 0.00 | 0.00 | 81 | 1002.4 |
| 20260505080020 | 46 | 304 | 7.0 | 15.0 | 0.00 | 0.00 | 0.00 | 78 | 1001.8 |
| 20260505074523 | 47 | 346 | 5.0 | 9.0 | 0.00 | 0.00 | 0.00 | 76 | 1001.7 |
| 20260505073027 | 48 | 15 | 6.0 | 10.0 | 0.00 | 0.00 | 0.00 | 74 | 1001.5 |
| 20260505071539 | 49 | 348 | 7.0 | 12.0 | 0.00 | 0.00 | 0.00 | 72 | 1001.6 |
| 20260505070024 | 50 | 360 | 7.0 | 13.0 | 0.00 | 0.00 | 0.00 | 71 | 1001.3 |
| 20260505064523 | 50 | 347 | 7.0 | 12.0 | 0.00 | 0.00 | 0.00 | 70 | 1001.6 |
| 20260505063011 | 51 | 329 | 6.0 | 13.0 | 0.00 | 0.00 | 0.00 | 69 | 1001.2 |
| 20260505061511 | 51 | 348 | 7.0 | 12.0 | 0.00 | 0.00 | 0.00 | 69 | 1000.9 |
| 20260505060022 | 51 | 5 | 3.0 | 6.0 | 0.00 | 0.00 | 0.00 | 71 | 1000.9 |
| 20260505054507 | 51 | 332 | 5.0 | 12.0 | 0.00 | 0.00 | 0.00 | 70 | 1000.7 |
| 20260505053023 | 52 | 324 | 2.0 | 7.0 | 0.00 | 0.00 | 0.00 | 69 | 1000.5 |
| 20260505051533 | 52 | 261 | 2.0 | 7.0 | 0.00 | 0.00 | 0.00 | 78 | 1000.6 |
| 20260505041515 | 50 | 65 | 2.0 | 5.0 | 0.00 | 0.00 | 0.00 | 85 | 998.7 |
| 20260505040033 | 50 | 39 | 2.0 | 4.0 | 0.00 | 0.00 | 0.00 | 84 | 999.5 |
| 20260505034507 | 51 | 39 | 2.0 | 9.0 | 0.00 | 0.00 | 0.00 | 85 | 999.6 |
| 20260505033020 | 51 | 244 | 2.0 | 8.0 | 0.00 | 0.00 | 0.00 | 82 | 999.7 |
| 20260505031522 | 51 | 139 | 8.0 | 15.0 | 0.00 | 0.00 | 0.00 | 83 | 999.5 |
| 20260505030021 | 51 | 194 | 6.0 | 9.0 | 0.00 | 0.00 | 0.00 | 84 | 999.3 |
| 20260505024521 | 51 | 232 | 6.0 | 13.0 | 0.00 | 0.00 | 0.00 | 82 | 999.4 |
| 20260505023024 | 51 | 219 | 9.0 | 22.0 | 0.00 | 0.00 | 0.00 | 82 | 999.0 |
| 20260505021512 | 52 | 300 | 14.0 | 18.0 | 0.00 | 0.00 | 0.00 | 81 | 999.4 |
| 20260505020021 | 52 | 153 | 15.0 | 24.0 | 0.00 | 0.00 | 0.00 | 82 | 997.7 |
| 20260505014508 | 52 | 191 | 16.0 | 23.0 | 0.00 | 0.00 | 0.00 | 83 | 997.6 |
| 20260505013018 | 54 | 187 | 15.0 | 27.0 | 0.00 | 0.00 | 0.00 | 80 | 997.0 |
| 20260505011522 | 55 | 201 | 18.0 | 28.0 | 0.00 | 0.00 | 0.00 | 80 | 996.9 |
| 20260505010009 | 55 | 173 | 18.0 | 28.0 | 0.00 | 0.00 | 0.00 | 79 | 996.4 |
| 20260505004519 | 55 | 210 | 15.0 | 24.0 | 0.00 | 0.00 | 0.00 | 76 | 996.6 |
| 20260505003027 | 57 | 173 | 17.0 | 28.0 | 0.00 | 0.00 | 0.00 | 71 | 996.4 |
| 20260505001513 | 57 | 188 | 12.0 | 24.0 | 0.00 | 0.00 | 0.00 | 70 | 996.3 |
| 20260505000023 | 60 | 194 | 11.0 | 25.0 | 0.00 | 0.00 | 0.00 | 67 | 996.1 |
| 20260504234525 | 60 | 181 | 14.0 | 26.0 | 0.00 | 0.00 | 0.00 | 65 | 996.2 |
| 20260504233016 | 62 | 165 | 16.0 | 26.0 | 0.00 | 0.00 | 0.00 | 63 | 996.3 |
| 20260504231526 | 61 | 189 | 17.0 | 25.0 | 0.00 | 0.00 | 0.00 | 66 | 996.6 |
| 20260504230012 | 61 | 175 | 15.0 | 26.0 | 0.00 | 0.00 | 0.00 | 65 | 997.1 |
| 20260504224518 | 61 | 180 | 15.0 | 25.0 | 0.00 | 0.00 | 0.00 | 68 | 997.4 |
| 20260504223004 | 60 | 175 | 15.0 | 28.0 | 0.00 | 0.00 | 0.00 | 69 | 997.7 |
| 20260504221522 | 60 | 182 | 14.0 | 26.0 | 0.00 | 0.00 | 0.00 | 70 | 997.9 |
| 20260504220028 | 59 | 178 | 16.0 | 26.0 | 0.00 | 0.00 | 0.00 | 71 | 998.0 |
| 20260504214508 | 60 | 200 | 15.0 | 26.0 | 0.00 | 0.00 | 0.00 | 70 | 998.2 |
| 20260504213022 | 58 | 146 | 15.0 | 28.0 | 0.00 | 0.00 | 0.00 | 73 | 998.4 |
| 20260504211523 | 58 | 172 | 15.0 | 28.0 | 0.00 | 0.00 | 0.00 | 73 | 998.5 |
| 20260504210014 | 58 | 150 | 16.0 | 25.0 | 0.00 | 0.00 | 0.00 | 72 | 998.6 |
| 20260504204523 | 58 | 169 | 17.0 | 27.0 | 0.00 | 0.00 | 0.00 | 72 | 998.9 |
| 20260504203011 | 58 | 190 | 14.0 | 25.0 | 0.00 | 0.00 | 0.00 | 72 | 999.0 |
| 20260504201517 | 58 | 178 | 16.0 | 22.0 | 0.00 | 0.00 | 0.00 | 71 | 999.2 |
| 20260504200036 | 57 | 157 | 14.0 | 24.0 | 0.00 | 0.00 | 0.00 | 73 | 999.4 |
| 20260504194508 | 56 | 179 | 14.0 | 23.0 | 0.00 | 0.00 | 0.00 | 73 | 999.6 |
| 20260504193022 | 57 | 202 | 13.0 | 23.0 | 0.00 | 0.00 | 0.00 | 71 | 999.6 |
| 20260504191537 | 57 | 169 | 15.0 | 28.0 | 0.00 | 0.00 | 0.00 | 71 | 999.8 |
| 20260504190016 | 56 | 172 | 14.0 | 24.0 | 0.00 | 0.00 | 0.00 | 72 | 1000.0 |
| 20260504184522 | 55 | 209 | 14.0 | 21.0 | 0.00 | 0.00 | 0.00 | 74 | 1000.2 |
| 20260504183012 | 55 | 169 | 13.0 | 20.0 | 0.00 | 0.00 | 0.00 | 75 | 1000.3 |
| 20260504181523 | 56 | 171 | 15.0 | 21.0 | 0.00 | 0.00 | 0.00 | 72 | 1000.3 |
| 20260504180026 | 55 | 178 | 15.0 | 23.0 | 0.00 | 0.00 | 0.00 | 73 | 1000.4 |
| 20260504174515 | 55 | 178 | 14.0 | 23.0 | 0.00 | 0.00 | 0.00 | 75 | 1000.4 |
| 20260504173026 | 55 | 155 | 17.0 | 24.0 | 0.00 | 0.00 | 0.00 | 74 | 1000.7 |
| 20260504171528 | 54 | 170 | 15.0 | 21.0 | 0.00 | 0.00 | 0.00 | 75 | 1000.8 |